User: anonymous   Login
Location: Unspecified
(0.0000°N, 0.0000°E)
Time: 01:06:13
(UTC+00:00)
Language:

STARLINK-31092 - Orbit

View from above orbital plane
View from above orbital plane
View from above satellite
View from above satellite

Ground track
Ground track

The orbit is defined by the following mean orbital elements,

1 58628U          26145.59182803 +.00000000 +00000-0 +11760-3 0 00004
2 58628  43.0020 352.6994 0001475 275.7262  84.3422 15.27580162    06
Epoch (UTC): 25 May 2026 14:12:13
Eccentricity: 0.0001475
inclination: 43.0020°
perigee height: 482 km
apogee height: 484 km
right ascension of ascending node: 352.6994°
argument of perigee: 275.7262°
revolutions per day: 15.27580162
mean anomaly at epoch: 84.3422°

The dashed part of the orbit path shows where the satellite is in the earth's shadow,  

DLR